K3PPP Weather Reports


Display with metric or nautical units.
time (UTC)temp
F
wind
direction
speed
MPH
gust
MPH
rain 1hr
in
rain 24hr
in
rain mn
in
humidity
%
barometer
mb
20260509201046 61 277 3.0 3.0 0.00 0.18 0.18 69 1009.7
20260509200545 60 322 1.0 2.0 0.00 0.18 0.18 70 1009.7
20260509200042 60 238 3.0 3.0 0.00 0.18 0.18 68 1009.7
20260509195537 59 231 7.0 10.0 0.00 0.18 0.18 69 1009.8
20260509195032 60 226 6.0 9.0 0.00 0.18 0.18 69 1010.1
20260509194527 60 253 4.0 5.0 0.00 0.18 0.18 68 1010.0
20260509194025 60 342 2.0 5.0 0.00 0.18 0.18 68 1010.0
20260509193525 59 165 2.0 2.0 0.00 0.18 0.18 70 1010.1
20260509193022 58 342 3.0 5.0 0.00 0.18 0.18 70 1010.1
20260509192518 59 165 4.0 6.0 0.00 0.18 0.18 72 1010.1
20260509192013 58 290 6.0 8.0 0.00 0.18 0.18 69 1010.0
20260509191508 59 142 3.0 5.0 0.00 0.18 0.18 70 1010.1
20260509191004 59 208 8.0 11.0 0.00 0.18 0.18 68 1010.1
20260509190501 59 203 2.0 3.0 0.00 0.18 0.18 70 1010.1
20260509185959 58 272 4.0 6.0 0.00 0.18 0.18 71 1010.2
20260509185456 57 304 1.0 1.0 0.00 0.18 0.18 74 1010.1
20260509184952 56 20 0.0 0.0 0.00 0.18 0.18 78 1010.1
20260509184451 56 350 0.0 1.0 0.00 0.18 0.18 77 1010.0
20260509183947 56 326 2.0 2.0 0.00 0.18 0.18 77 1010.0
20260509183441 56 277 1.0 1.0 0.00 0.18 0.18 77 1010.1
20260509182938 56 259 3.0 5.0 0.00 0.18 0.18 78 1009.9
20260509182434 55 222 4.0 7.0 0.00 0.18 0.18 78 1010.0
20260509181931 55 242 2.0 3.0 0.00 0.18 0.18 78 1010.1
20260509181429 55 192 5.0 7.0 0.00 0.18 0.18 79 1010.0
20260509180926 55 198 5.0 7.0 0.00 0.18 0.18 78 1009.8
20260509180422 55 216 5.0 8.0 0.00 0.18 0.18 80 1010.1
20260509175919 55 281 2.0 2.0 0.00 0.18 0.18 78 1010.1
20260509175415 54 230 3.0 3.0 0.00 0.18 0.18 79 1010.1
20260509174911 54 307 4.0 6.0 0.00 0.18 0.18 81 1010.1
20260509174408 54 225 5.0 7.0 0.00 0.18 0.18 80 1010.0
20260509173903 54 294 4.0 5.0 0.00 0.18 0.18 81 1010.2
20260509173357 53 259 4.0 7.0 0.00 0.18 0.18 83 1010.0
20260509172854 53 282 3.0 3.0 0.00 0.18 0.18 85 1010.2
20260509172351 53 189 4.0 5.0 0.00 0.18 0.18 84 1010.1
20260509171847 53 221 5.0 6.0 0.00 0.18 0.18 85 1010.2
20260509171343 53 238 4.0 5.0 0.00 0.18 0.18 86 1010.1
20260509170840 52 200 3.0 3.0 0.00 0.18 0.18 85 1010.4
20260509170336 52 257 3.0 5.0 0.00 0.18 0.18 88 1010.2
20260509165830 52 201 2.0 3.0 0.00 0.18 0.18 89 1010.1
20260509165325 52 259 2.0 3.0 0.00 0.18 0.18 89 1010.2
20260509164821 51 209 4.0 5.0 0.00 0.18 0.18 91 1010.2
20260509164317 52 227 2.0 2.0 0.00 0.18 0.18 91 1010.1
20260509163814 51 227 1.0 2.0 0.00 0.18 0.18 93 1010.2
20260509163310 51 207 2.0 2.0 0.00 0.18 0.18 94 1010.2
20260509162809 51 220 5.0 6.0 0.00 0.18 0.18 94 1010.2
20260509162306 50 304 2.0 3.0 0.00 0.18 0.18 94 1010.3
20260509161759 50 229 5.0 6.0 0.00 0.18 0.18 94 1010.4
20260509161255 50 200 3.0 3.0 0.00 0.18 0.18 94 1010.7
20260509160751 51 305 3.0 5.0 0.00 0.18 0.18 94 1010.8
20260509160247 51 214 4.0 8.0 0.00 0.18 0.18 95 1010.6
20260509155742 51 245 3.0 5.0 0.07 0.18 0.18 96 1010.7
20260509155239 51 232 4.0 5.0 0.07 0.18 0.18 98 1010.6
20260509154735 50 166 3.0 5.0 0.00 0.17 0.17 99 1010.7
20260509154233 50 197 3.0 3.0 0.00 0.17 0.17 98 1010.9
20260509153730 49 176 2.0 2.0 0.00 0.17 0.17 98 1010.9
20260509153226 49 233 3.0 5.0 0.00 0.17 0.17 98 1010.8
20260509152722 49 251 1.0 2.0 0.00 0.17 0.17 98 1010.4
20260509152219 49 248 2.0 2.0 0.00 0.17 0.17 98 1010.9
20260509151716 50 230 2.0 5.0 0.00 0.17 0.17 98 1010.6
20260509151213 50 7 1.0 2.0 0.00 0.17 0.17 98 1010.8
20260509150710 49 64 1.0 1.0 0.05 0.17 0.17 98 1011.0
20260509150209 50 304 2.0 2.0 0.05 0.17 0.17 98 1010.8
20260509145704 50 206 1.0 2.0 0.05 0.17 0.17 98 1010.8
20260509145200 49 261 3.0 3.0 0.00 0.16 0.16 98 1010.7
20260509144656 50 331 0.0 1.0 0.00 0.16 0.16 98 1010.8
20260509144154 49 266 2.0 2.0 0.00 0.16 0.16 98 1010.7
20260509143651 49 334 2.0 3.0 0.00 0.16 0.16 98 1010.7
20260509143149 49 214 4.0 6.0 0.00 0.16 0.16 98 1010.6
20260509142644 49 214 3.0 6.0 0.07 0.16 0.16 99 1010.9
20260509142141 49 323 2.0 2.0 0.07 0.16 0.16 99 1010.7
20260509141636 49 327 2.0 2.0 0.00 0.15 0.15 99 1010.8
20260509141133 49 313 2.0 2.0 0.00 0.15 0.15 99 1010.7
20260509140630 48 74 0.0 0.0 0.00 0.15 0.15 99 1010.8
20260509140128 49 247 4.0 5.0 0.00 0.15 0.15 99 1010.7
20260509135625 49 230 3.0 3.0 0.00 0.15 0.15 99 1010.7
20260509135123 48 311 2.0 2.0 0.00 0.15 0.15 99 1010.7
20260509134619 48 207 2.0 2.0 0.00 0.15 0.15 99 1010.7
20260509134117 48 288 0.0 1.0 0.00 0.15 0.15 99 1010.7
20260509133614 48 262 1.0 2.0 0.00 0.15 0.15 99 1010.8
20260509133111 48 225 4.0 6.0 0.05 0.15 0.15 99 1010.7
20260509132609 48 210 2.0 5.0 0.05 0.15 0.15 99 1010.9
20260509132107 48 208 2.0 3.0 0.05 0.15 0.15 99 1011.1
20260509131603 47 286 1.0 1.0 0.00 0.14 0.14 99 1011.0
20260509131100 48 138 1.0 1.0 0.07 0.14 0.14 99 1011.0
20260509130556 47 177 3.0 3.0 0.07 0.14 0.14 99 1011.2
20260509130053 47 74 1.0 1.0 0.00 0.13 0.13 99 1011.3
20260509125549 47 207 3.0 3.0 0.05 0.13 0.13 99 1011.2
20260509125046 47 19 0.0 0.0 0.05 0.13 0.13 99 1011.1
20260509124542 47 340 1.0 1.0 0.07 0.12 0.12 99 1011.1
20260509124040 47 229 3.0 3.0 0.07 0.12 0.12 99 1011.3
20260509123537 47 323 2.0 2.0 0.00 0.11 0.11 99 1011.1
20260509123033 47 22 0.0 0.0 0.00 0.11 0.11 99 1011.1
20260509122530 47 319 1.0 1.0 0.00 0.11 0.11 99 1011.0
20260509122027 47 218 2.0 2.0 0.00 0.11 0.11 99 1011.1
20260509121523 47 234 3.0 3.0 0.05 0.11 0.11 99 1011.3
20260509121021 47 248 1.0 1.0 0.05 0.11 0.11 99 1011.0
20260509120520 47 127 2.0 3.0 0.07 0.10 0.10 99 1011.2
20260509120017 47 337 0.0 0.0 0.07 0.10 0.10 99 1011.1
20260509115514 47 228 2.0 2.0 0.00 0.09 0.09 99 1011.2
20260509115012 47 313 0.0 1.0 0.00 0.09 0.09 99 1011.3
20260509114510 47 265 1.0 1.0 0.00 0.09 0.09 99 1011.3
20260509114009 47 28 0.0 0.0 0.00 0.09 0.09 99 1011.0
20260509113506 47 114 0.0 0.0 0.00 0.09 0.09 99 1011.0
20260509113004 47 123 0.0 0.0 0.07 0.09 0.09 99 1011.1
20260509112500 46 171 0.0 0.0 0.07 0.09 0.09 99 1011.0
20260509111956 46 234 2.0 2.0 0.05 0.08 0.08 99 1011.0
20260509111454 46 4 1.0 1.0 0.05 0.08 0.08 99 1010.8
20260509110951 46 213 1.0 1.0 0.00 0.07 0.07 99 1011.0
20260509110447 46 283 0.0 0.0 0.07 0.07 0.07 99 1010.9
20260509105945 46 124 0.0 0.0 0.07 0.07 0.07 99 1011.1
20260509105444 46 214 1.0 1.0 0.00 0.06 0.06 99 1011.0
20260509104940 46 22 0.0 0.0 0.00 0.06 0.06 98 1010.8
20260509104437 46 12 0.0 0.0 0.00 0.06 0.06 98 1010.9
20260509103934 46 7 0.0 0.0 0.00 0.06 0.06 98 1010.9
20260509103432 46 14 0.0 1.0 0.05 0.06 0.06 98 1010.8
20260509102930 46 185 1.0 2.0 0.05 0.06 0.06 98 1010.8
20260509102427 46 309 2.0 2.0 0.05 0.06 0.06 98 1010.9
20260509101923 46 329 2.0 2.0 0.07 0.05 0.05 97 1011.1
20260509101419 46 13 1.0 1.0 0.07 0.05 0.05 97 1011.2
20260509100917 46 304 1.0 1.0 0.05 0.04 0.04 97 1011.0
20260509100414 46 39 1.0 1.0 0.05 0.04 0.04 97 1011.3
20260509095910 46 346 3.0 3.0 0.00 0.03 0.03 96 1011.4
20260509095408 46 331 1.0 1.0 0.00 0.03 0.03 96 1011.1
20260509094905 46 56 1.0 1.0 0.00 0.03 0.03 96 1011.1
20260509094401 46 334 2.0 2.0 0.00 0.03 0.03 95 1011.2
20260509093859 46 321 2.0 2.0 0.00 0.03 0.03 95 1011.2
20260509093356 46 316 3.0 3.0 0.07 0.03 0.03 94 1011.4
20260509092855 47 307 2.0 2.0 0.07 0.03 0.03 94 1011.5
20260509092352 47 231 0.0 1.0 0.05 0.02 0.02 93 1011.3
20260509091850 47 325 2.0 2.0 0.05 0.02 0.02 91 1011.3
20260509091347 47 354 2.0 2.0 0.07 0.01 0.01 91 1011.6
20260509090844 48 311 3.0 5.0 0.07 0.01 0.01 89 1011.3
20260509090341 48 296 4.0 6.0 0.07 0.01 0.01 87 1011.4
20260509085838 49 335 5.0 6.0 0.00 0.00 0.00 83 1011.3
20260509085336 49 345 4.0 5.0 0.00 0.00 0.00 82 1011.3
20260509084832 50 10 0.0 1.0 0.00 0.00 0.00 79 1011.4
20260509084329 50 312 2.0 2.0 0.00 0.00 0.00 76 1011.1
20260509083827 51 22 1.0 2.0 0.00 0.00 0.00 72 1011.1
20260509083323 51 237 4.0 5.0 0.00 0.00 0.00 71 1011.1
20260509082820 51 215 2.0 3.0 0.00 0.00 0.00 70 1010.9
20260509082316 51 39 0.0 1.0 0.00 0.00 0.00 68 1011.0
20260509081814 51 239 3.0 5.0 0.00 0.00 0.00 67 1010.9
20260509081311 51 244 3.0 3.0 0.00 0.00 0.00 67 1010.8
20260509080809 52 353 2.0 2.0 0.00 0.00 0.00 64 1010.8
20260509080306 52 250 2.0 3.0 0.00 0.00 0.00 63 1010.7
20260509075805 52 264 3.0 6.0 0.00 0.00 0.00 62 1010.4
20260509075305 51 223 4.0 5.0 0.00 0.00 0.00 63 1010.6
20260509074758 51 221 4.0 5.0 0.00 0.00 0.00 62 1010.6
20260509074256 51 213 2.0 2.0 0.00 0.00 0.00 63 1010.3
20260509073752 51 214 1.0 1.0 0.00 0.00 0.00 64 1010.3
20260509073249 50 222 1.0 2.0 0.00 0.00 0.00 64 1010.3
20260509072745 50 222 0.0 0.0 0.00 0.00 0.00 66 1010.2
20260509072242 51 186 0.0 0.0 0.00 0.00 0.00 65 1010.3
20260509071739 50 206 1.0 2.0 0.00 0.00 0.00 65 1010.1
20260509071236 50 150 0.0 0.0 0.00 0.00 0.00 65 1010.2
20260509070733 50 162 0.0 0.0 0.00 0.00 0.00 66 1010.3
20260509070229 49 92 0.0 0.0 0.00 0.00 0.00 68 1010.3
20260509065726 50 92 0.0 0.0 0.00 0.00 0.00 67 1010.1
20260509065222 50 91 0.0 0.0 0.00 0.00 0.00 67 1010.4
20260509064718 50 91 0.0 0.0 0.00 0.00 0.00 68 1010.6
20260509064216 50 351 0.0 0.0 0.00 0.00 0.00 70 1010.2
20260509063713 50 150 1.0 1.0 0.00 0.00 0.00 67 1010.3
20260509063209 49 209 1.0 1.0 0.00 0.00 0.00 67 1010.4
20260509062707 49 149 0.0 0.0 0.00 0.00 0.00 70 1010.4
20260509062204 49 65 0.0 0.0 0.00 0.00 0.00 69 1010.2
20260509061701 48 64 0.0 0.0 0.00 0.00 0.00 71 1010.6
20260509061158 48 64 0.0 0.0 0.00 0.00 0.00 70 1010.6
20260509060656 48 64 0.0 0.0 0.00 0.00 0.00 69 1010.7
20260509060152 48 64 0.0 0.0 0.00 0.00 0.00 71 1010.7
20260509055647 49 64 0.0 0.0 0.00 0.00 0.00 70 1010.8
20260509055144 49 64 0.0 0.0 0.00 0.00 0.00 70 1010.9
20260509054640 49 64 0.0 0.0 0.00 0.00 0.00 70 1011.0
20260509054138 49 65 0.0 0.0 0.00 0.00 0.00 70 1011.0
20260509053636 50 33 0.0 0.0 0.00 0.00 0.00 70 1011.1
20260509053133 50 315 3.0 3.0 0.00 0.00 0.00 69 1011.1
20260509052631 49 237 0.0 0.0 0.00 0.00 0.00 69 1011.4
20260509052128 50 237 0.0 0.0 0.00 0.00 0.00 70 1011.5
20260509051626 50 237 0.0 0.0 0.00 0.00 0.00 68 1011.5
20260509051122 50 237 0.0 0.0 0.00 0.00 0.00 67 1011.6
20260509050620 51 237 0.0 0.0 0.00 0.00 0.00 67 1011.3
20260509050116 51 237 0.0 0.0 0.00 0.00 0.00 66 1011.5
20260509045614 51 237 0.0 0.0 0.00 0.00 0.00 66 1011.4
20260509045110 51 237 0.0 0.0 0.00 0.00 0.00 67 1011.5
20260509044608 51 237 0.0 0.0 0.00 0.00 0.00 67 1011.8
20260509044105 51 237 0.0 0.0 0.00 0.00 0.00 66 1011.9
20260509043601 51 237 0.0 0.0 0.00 0.00 0.00 66 1011.8
20260509043057 51 237 0.0 0.0 0.00 0.00 0.00 66 1011.6
20260509042553 51 237 0.0 0.0 0.00 0.00 0.00 66 1011.8
20260509042050 51 237 0.0 0.0 0.00 0.00 0.00 67 1011.7
20260509041547 51 238 0.0 0.0 0.00 0.00 0.00 66 1011.9
20260509041044 51 237 0.0 0.0 0.00 0.00 0.00 65 1011.6
20260509040543 52 237 0.0 0.0 0.00 0.00 0.00 65 1011.5
20260509040039 52 238 0.0 0.0 0.00 0.00 0.00 64 1011.7
20260509035536 52 238 0.0 0.0 0.00 0.00 0.00 64 1011.6
20260509035032 51 238 0.0 0.0 0.00 0.00 0.00 65 1011.8
20260509034531 52 238 0.0 0.0 0.00 0.00 0.00 66 1011.8
20260509034027 52 238 0.0 0.0 0.00 0.00 0.00 65 1011.8
20260509033525 52 238 0.0 0.0 0.00 0.00 0.00 66 1012.2
20260509033021 52 238 0.0 0.0 0.00 0.00 0.00 65 1011.9
20260509032519 52 238 0.0 0.0 0.00 0.00 0.00 65 1012.1
20260509032016 52 239 0.0 0.0 0.00 0.00 0.00 67 1012.2
20260509031513 51 238 0.0 0.0 0.00 0.00 0.00 65 1012.1
20260509031010 52 238 0.0 0.0 0.00 0.00 0.00 66 1012.1
20260509030508 52 238 0.0 0.0 0.00 0.00 0.00 65 1011.8
20260509030005 52 238 0.0 0.0 0.00 0.00 0.00 65 1012.1
20260509025500 53 238 0.0 0.0 0.00 0.00 0.00 64 1012.1
20260509024956 53 238 0.0 0.0 0.00 0.00 0.00 62 1012.1
20260509024452 53 237 0.0 0.0 0.00 0.00 0.00 61 1011.9
20260509023949 53 258 0.0 0.0 0.00 0.00 0.00 61 1012.2
20260509023447 53 258 0.0 0.0 0.00 0.00 0.00 63 1012.3
20260509022943 53 230 0.0 0.0 0.00 0.00 0.00 61 1012.1
20260509022440 53 273 1.0 1.0 0.00 0.00 0.00 62 1012.1
20260509021938 53 224 2.0 2.0 0.00 0.00 0.00 62 1012.1
20260509021434 53 221 0.0 0.0 0.00 0.00 0.00 64 1012.2
20260509020932 53 195 0.0 0.0 0.00 0.00 0.00 62 1012.1
20260509020430 53 177 0.0 0.0 0.00 0.00 0.00 60 1012.2
20260509015926 53 177 0.0 0.0 0.00 0.00 0.00 61 1011.8
20260509015426 53 177 0.0 0.0 0.00 0.00 0.00 62 1011.9
20260509014922 53 177 0.0 0.0 0.00 0.00 0.00 62 1012.1
20260509014418 53 203 0.0 0.0 0.00 0.00 0.00 62 1011.7
20260509013915 53 203 0.0 0.0 0.00 0.00 0.00 62 1011.7
20260509013412 54 203 0.0 0.0 0.00 0.00 0.00 59 1011.6
20260509012907 54 203 0.0 1.0 0.00 0.00 0.00 60 1011.9
20260509012404 54 244 0.0 0.0 0.00 0.00 0.00 58 1011.7
20260509011901 55 244 1.0 2.0 0.00 0.00 0.00 58 1011.7
20260509011359 55 201 0.0 1.0 0.00 0.00 0.00 58 1011.8
20260509010857 54 263 1.0 1.0 0.00 0.00 0.00 57 1011.8
20260509010354 55 29 0.0 0.0 0.00 0.00 0.00 59 1011.8
20260509005851 55 10 1.0 1.0 0.00 0.00 0.00 57 1011.8
20260509005349 55 217 1.0 1.0 0.00 0.00 0.00 57 1011.7
20260509004849 55 94 0.0 0.0 0.00 0.00 0.00 57 1011.9
20260509004345 55 263 0.0 0.0 0.00 0.00 0.00 56 1011.8
20260509003843 55 122 1.0 2.0 0.00 0.00 0.00 56 1011.5
20260509003341 55 214 0.0 1.0 0.00 0.00 0.00 55 1011.6
20260509002837 55 241 2.0 2.0 0.00 0.00 0.00 56 1011.6
20260509002335 56 264 2.0 2.0 0.00 0.00 0.00 56 1011.6
20260509001833 56 259 2.0 2.0 0.00 0.00 0.00 55 1011.4
20260509001328 55 203 5.0 6.0 0.00 0.00 0.00 56 1011.2
20260509000826 56 248 2.0 3.0 0.00 0.00 0.00 55 1011.8
20260509000325 55 267 2.0 2.0 0.00 0.00 0.00 55 1011.6
20260508235820 56 209 1.0 1.0 0.00 0.00 0.00 55 1011.5
20260508235317 56 258 1.0 2.0 0.00 0.00 0.00 56 1011.5
20260508234814 56 47 0.0 0.0 0.00 0.00 0.00 55 1011.6
20260508234310 56 338 2.0 3.0 0.00 0.00 0.00 55 1011.6
20260508233809 56 127 0.0 1.0 0.00 0.00 0.00 56 1011.5
20260508233308 56 273 1.0 2.0 0.00 0.00 0.00 56 1011.6
20260508232805 56 217 1.0 1.0 0.00 0.00 0.00 56 1011.4
20260508232301 56 224 2.0 2.0 0.00 0.00 0.00 55 1011.3
20260508231800 55 224 2.0 3.0 0.00 0.00 0.00 57 1011.2
20260508231255 55 69 1.0 1.0 0.00 0.00 0.00 57 1011.4
20260508230752 55 204 5.0 6.0 0.00 0.00 0.00 56 1011.2
20260508230248 55 221 3.0 3.0 0.00 0.00 0.00 55 1011.2
20260508225746 56 215 6.0 9.0 0.00 0.00 0.00 55 1011.1
20260508225242 56 208 3.0 5.0 0.00 0.00 0.00 54 1011.4
20260508224740 56 330 3.0 3.0 0.00 0.00 0.00 54 1011.4
20260508224238 56 225 4.0 6.0 0.00 0.00 0.00 54 1011.3
20260508223735 57 4 2.0 2.0 0.00 0.00 0.00 53 1011.3
20260508223232 57 202 8.0 11.0 0.00 0.00 0.00 53 1011.2
20260508222729 57 217 2.0 2.0 0.00 0.00 0.00 54 1011.2
20260508222227 57 302 1.0 2.0 0.00 0.00 0.00 55 1011.2
20260508221723 57 12 3.0 3.0 0.00 0.00 0.00 54 1011.4
20260508221219 57 202 5.0 6.0 0.00 0.00 0.00 53 1011.1
20260508220715 57 206 4.0 5.0 0.00 0.00 0.00 53 1011.2
20260508220212 59 229 5.0 6.0 0.00 0.00 0.00 51 1011.3
20260508215708 59 247 3.0 5.0 0.00 0.00 0.00 50 1011.6
20260508215205 59 273 3.0 3.0 0.00 0.00 0.00 50 1011.4
20260508214702 58 304 4.0 5.0 0.00 0.00 0.00 51 1011.8
20260508214200 58 118 1.0 1.0 0.00 0.00 0.00 51 1011.7
20260508213656 58 262 6.0 7.0 0.00 0.00 0.00 51 1011.9
20260508213152 59 91 3.0 5.0 0.00 0.00 0.00 52 1011.8
20260508212649 57 291 3.0 5.0 0.00 0.00 0.00 55 1011.8
20260508212145 58 306 2.0 5.0 0.00 0.00 0.00 53 1011.6
20260508211640 59 270 3.0 3.0 0.00 0.00 0.00 49 1011.9
20260508211138 59 243 3.0 5.0 0.00 0.00 0.00 50 1011.5
20260508210634 59 292 2.0 2.0 0.00 0.00 0.00 52 1012.1
20260508210132 58 341 3.0 3.0 0.00 0.00 0.00 53 1012.1
20260508205629 55 338 1.0 2.0 0.00 0.00 0.00 56 1012.1
20260508205125 55 165 1.0 1.0 0.00 0.00 0.00 57 1012.1
20260508204621 54 291 1.0 2.0 0.00 0.00 0.00 57 1012.2
20260508204117 54 346 1.0 2.0 0.00 0.00 0.00 58 1012.2
20260508203614 54 299 3.0 5.0 0.00 0.00 0.00 58 1012.5
20260508203110 54 359 2.0 2.0 0.00 0.00 0.00 58 1012.7
20260508202606 54 336 1.0 1.0 0.00 0.00 0.00 58 1012.9
20260508202103 54 324 2.0 2.0 0.00 0.00 0.00 58 1012.5
20260508201601 54 339 3.0 6.0 0.00 0.00 0.00 58 1012.5